Hourly Weather Sharan

Today, 8 August, Saturday

Time Temperature Precipitation Wind Pressure Humidity
00:00 +26°C° 0 mm 2 mps 588 mmHg 54%
01:00 +26°C° 0 mm 1 mps 587 mmHg 56%
02:00 +25°C° 0 mm 1 mps 587 mmHg 58%
03:00 +23°C° 0 mm 0 mps 587 mmHg 59%
04:00 +22°C° 0 mm 0 mps 586 mmHg 61%
05:00 +22°C° 0 mm 0 mps 586 mmHg 62%
06:00 +23°C° 0 mm 0 mps 587 mmHg 59%
07:00 +23°C° 0 mm 0 mps 587 mmHg 56%
08:00 +24°C° 0 mm 0 mps 587 mmHg 52%
09:00 +25°C° 0.2 mm 0 mps 588 mmHg 46%
10:00 +28°C° 0.2 mm 1 mps 588 mmHg 40%
11:00 +30°C° 0 mm 1 mps 588 mmHg 34%
12:00 +31°C° 0.1 mm 2 mps 588 mmHg 32%
13:00 +31°C° 0.1 mm 2 mps 588 mmHg 30%
14:00 +33°C° 0.1 mm 3 mps 588 mmHg 27%
15:00 +33°C° 0.2 mm 4 mps 587 mmHg 31%
16:00 +32°C° 0.2 mm 5 mps 587 mmHg 34%
17:00 +32°C° 0.2 mm 5 mps 587 mmHg 37%
18:00 +28°C° 4.8 mm 5 mps 586 mmHg 50%
19:00 +25°C° 4.8 mm 4 mps 585 mmHg 64%
20:00 +20°C° 4.8 mm 3 mps 584 mmHg 77%
21:00 +21°C° 1.5 mm 3 mps 584 mmHg 71%
22:00 +21°C° 1.5 mm 2 mps 584 mmHg 66%
23:00 +23°C° 1.5 mm 2 mps 585 mmHg 60%

Tomorrow, 9 August, Sunday

Time Temperature Precipitation Wind Pressure Humidity
00:00 +23°C° 0 mm 2 mps 585 mmHg 60%
01:00 +23°C° 0 mm 1 mps 584 mmHg 60%
02:00 +23°C° 0 mm 1 mps 584 mmHg 61%
03:00 +23°C° 0 mm 1 mps 584 mmHg 61%
04:00 +23°C° 0 mm 1 mps 584 mmHg 61%
05:00 +23°C° 0 mm 1 mps 584 mmHg 62%
06:00 +23°C° 0 mm 1 mps 584 mmHg 59%
07:00 +22°C° 0 mm 0 mps 585 mmHg 57%
08:00 +22°C° 0 mm 0 mps 585 mmHg 54%
09:00 +25°C° 0 mm 1 mps 586 mmHg 50%
10:00 +27°C° 0 mm 1 mps 586 mmHg 46%
11:00 +28°C° 0 mm 2 mps 586 mmHg 42%
12:00 +29°C° 0 mm 2 mps 586 mmHg 39%
13:00 +30°C° 0 mm 2 mps 586 mmHg 36%
14:00 +31°C° 0 mm 2 mps 586 mmHg 33%
15:00 +31°C° 0.1 mm 3 mps 586 mmHg 35%
16:00 +32°C° 0.1 mm 5 mps 586 mmHg 37%
17:00 +30°C° 0.1 mm 6 mps 585 mmHg 39%
18:00 +30°C° 0 mm 6 mps 585 mmHg 42%
19:00 +29°C° 0 mm 6 mps 585 mmHg 46%
20:00 +28°C° 0 mm 5 mps 585 mmHg 49%
21:00 +27°C° 0 mm 4 mps 585 mmHg 51%
22:00 +27°C° 0 mm 3 mps 585 mmHg 54%
23:00 +26°C° 0 mm 2 mps 585 mmHg 56%

Day after tomorrow, 10 August, Monday

Time Temperature Precipitation Wind Pressure Humidity
00:00 +26°C° 0.1 mm 2 mps 585 mmHg 58%
01:00 +25°C° 0.1 mm 2 mps 585 mmHg 60%
02:00 +25°C° 0.1 mm 1 mps 585 mmHg 62%
03:00 +25°C° 0 mm 1 mps 585 mmHg 64%
04:00 +24°C° 0 mm 1 mps 585 mmHg 66%
05:00 +24°C° 0 mm 1 mps 584 mmHg 68%
06:00 +24°C° 0 mm 1 mps 585 mmHg 65%
07:00 +24°C° 0 mm 1 mps 585 mmHg 63%
08:00 +23°C° 0 mm 0 mps 585 mmHg 61%
09:00 +26°C° 0 mm 1 mps 585 mmHg 55%
10:00 +27°C° 0 mm 1 mps 586 mmHg 48%
11:00 +28°C° 0 mm 1 mps 586 mmHg 42%
12:00 +30°C° 0 mm 1 mps 586 mmHg 35%
13:00 +31°C° 0 mm 2 mps 587 mmHg 29%
14:00 +32°C° 0 mm 2 mps 587 mmHg 22%
15:00 +34°C° 0 mm 2 mps 587 mmHg 20%
16:00 +34°C° 0 mm 3 mps 587 mmHg 18%
17:00 +35°C° 0 mm 3 mps 586 mmHg 17%
18:00 +33°C° 0 mm 5 mps 586 mmHg 27%
19:00 +30°C° 0 mm 6 mps 586 mmHg 37%
20:00 +29°C° 0 mm 7 mps 585 mmHg 47%
21:00 +28°C° 0 mm 6 mps 585 mmHg 50%
22:00 +28°C° 0 mm 5 mps 586 mmHg 53%
23:00 +27°C° 0 mm 4 mps 586 mmHg 56%

11 August, Tuesday

Time Temperature Precipitation Wind Pressure Humidity
00:00 +27°C° 0.1 mm 3 mps 586 mmHg 57%
01:00 +26°C° 0.1 mm 2 mps 585 mmHg 58%
02:00 +26°C° 0.1 mm 1 mps 585 mmHg 59%
03:00 +26°C° 0.1 mm 1 mps 585 mmHg 61%
04:00 +25°C° 0.1 mm 1 mps 585 mmHg 62%
05:00 +25°C° 0.1 mm 1 mps 585 mmHg 64%
06:00 +25°C° 0 mm 1 mps 585 mmHg 60%
07:00 +26°C° 0 mm 1 mps 586 mmHg 57%
08:00 +26°C° 0 mm 1 mps 586 mmHg 54%
09:00 +27°C° 0 mm 1 mps 586 mmHg 48%
10:00 +28°C° 0 mm 1 mps 587 mmHg 42%
11:00 +29°C° 0 mm 1 mps 587 mmHg 36%
12:00 +31°C° 0 mm 1 mps 587 mmHg 31%
13:00 +32°C° 0 mm 1 mps 587 mmHg 27%
14:00 +34°C° 0 mm 2 mps 587 mmHg 22%
15:00 +34°C° 0 mm 2 mps 587 mmHg 20%
16:00 +35°C° 0 mm 2 mps 587 mmHg 19%
17:00 +35°C° 0 mm 2 mps 586 mmHg 17%
18:00 +34°C° 0 mm 3 mps 586 mmHg 24%
19:00 +33°C° 0 mm 5 mps 586 mmHg 31%
20:00 +30°C° 0 mm 6 mps 586 mmHg 37%
21:00 +29°C° 0 mm 5 mps 586 mmHg 43%
22:00 +29°C° 0 mm 4 mps 586 mmHg 48%
23:00 +28°C° 0 mm 3 mps 586 mmHg 53%

12 August, Wednesday

Time Temperature Precipitation Wind Pressure Humidity
00:00 +27°C° 0 mm 2 mps 586 mmHg 55%
01:00 +27°C° 0 mm 1 mps 585 mmHg 56%
02:00 +26°C° 0 mm 1 mps 585 mmHg 58%
03:00 +24°C° 0 mm 0 mps 585 mmHg 58%
04:00 +24°C° 0 mm 0 mps 585 mmHg 59%
05:00 +23°C° 0 mm 0 mps 585 mmHg 59%
06:00 +24°C° 0 mm 0 mps 585 mmHg 53%
07:00 +26°C° 0 mm 1 mps 586 mmHg 47%
08:00 +26°C° 0 mm 1 mps 586 mmHg 41%
09:00 +28°C° 0 mm 1 mps 586 mmHg 38%
10:00 +29°C° 0 mm 1 mps 587 mmHg 35%
11:00 +30°C° 0 mm 1 mps 587 mmHg 31%
12:00 +31°C° 0 mm 1 mps 587 mmHg 26%
13:00 +32°C° 0 mm 1 mps 587 mmHg 22%
14:00 +34°C° 0 mm 2 mps 587 mmHg 17%
15:00 +35°C° 0 mm 2 mps 587 mmHg 16%
16:00 +35°C° 0 mm 2 mps 587 mmHg 15%
17:00 +35°C° 0 mm 2 mps 587 mmHg 14%
18:00 +35°C° 0 mm 3 mps 587 mmHg 17%
19:00 +34°C° 0 mm 3 mps 587 mmHg 21%
20:00 +33°C° 0 mm 4 mps 587 mmHg 25%
21:00 +30°C° 0 mm 4 mps 586 mmHg 34%
22:00 +29°C° 0 mm 4 mps 586 mmHg 43%
23:00 +28°C° 0 mm 4 mps 586 mmHg 53%

13 August, Thursday

Time Temperature Precipitation Wind Pressure Humidity
00:00 +28°C° 0 mm 3 mps 586 mmHg 53%
01:00 +27°C° 0 mm 2 mps 586 mmHg 53%
02:00 +27°C° 0 mm 1 mps 586 mmHg 53%
03:00 +26°C° 0 mm 1 mps 586 mmHg 51%
04:00 +26°C° 0 mm 1 mps 585 mmHg 49%
05:00 +25°C° 0 mm 1 mps 585 mmHg 47%
06:00 +26°C° 0 mm 1 mps 586 mmHg 43%
07:00 +26°C° 0 mm 1 mps 586 mmHg 39%
08:00 +26°C° 0 mm 1 mps 586 mmHg 34%
09:00 +28°C° 0 mm 1 mps 587 mmHg 29%
10:00 +29°C° 0 mm 2 mps 587 mmHg 25%
11:00 +30°C° 0 mm 2 mps 587 mmHg 20%
12:00 +31°C° 0 mm 2 mps 587 mmHg 16%
13:00 +32°C° 0 mm 2 mps 587 mmHg 12%
14:00 +34°C° 0 mm 2 mps 587 mmHg 8%
15:00 +34°C° 0 mm 2 mps 587 mmHg 7%
16:00 +35°C° 0 mm 2 mps 586 mmHg 7%
17:00 +35°C° 0 mm 2 mps 586 mmHg 6%
18:00 +34°C° 0 mm 2 mps 586 mmHg 10%
19:00 +32°C° 0 mm 1 mps 586 mmHg 14%
20:00 +31°C° 0 mm 1 mps 586 mmHg 17%
21:00 +30°C° 0 mm 1 mps 586 mmHg 28%
22:00 +29°C° 0 mm 2 mps 586 mmHg 38%
23:00 +28°C° 0 mm 2 mps 586 mmHg 49%
Show more